Погода в Одессе

Погода в Одессе : погода сейчас, прогноз погоды и архив. Всё, что Вы хотите узнать о погоде в Одессе!

Хотите узнать прогноз погоды в Одессе? Тогда Вам сюда: Погода в Одессе

Поиск расширенной информации на нашем сайте:

Другие новости

Новости СМИ2

Главная страница сайта

Новости сайта

02.10.2013

Напоминаем, что на нашем новом сайте вы можете получить высокодетализированные прогнозы погоды по пунктам России, СНГ и мира (включающие важные для авиации метеовеличины, такие как направление и скорость ветра, видимость, явления погоды, количество и форма облачности, нижняя и верхняя граница облачности), а также ознакомиться с разнообразными материалами по авиационной метеорологии и подборкой полезных ссылок на эту тему.

Сайт Метеоцентр.Азия посвящён разработке технологий оптимизации авиаметеорологического обслуживания, включая проектирование и перспективное создание нескольких автоматизированных авиаметеорологических систем:
- система выпуска высокодетальных прогностических карт явлений погоды для нижнего воздушного пространства по России и ближнему зарубежью;
- система верификации прогнозов TAF (выпускаемых синоптиками официальных АМСГ РФ и ближнего зарубежья) и AUTOTAF (выпускаемых сайтом Метеоцентр.Азия) - выявление ошибок, онлайн-сопоставление с фактической погодой METAR, автоматическое внесение коррективов в прогнозы при резком отклонении фактической погоды от прогноза, подсчёт оправдываемости прогнозов по элементам и в целом;
- система обработки, анализа и отображения авиаметеорологической информации для применения провайдерами метеорологической информации.


Погода в Одессе - сегодня

Время (UTC), дата Ветер
(°,м/с) 
Видим.   Явления Облачность Т
(°С)
Тd
(°С)
f(%) Тe
(°С)
Pmin
(гПа)
dP
(гПа)
Po
(мм)
O2
(г/м3)
Тmin Tmax R s Состояние
почвы
12 25.02.17 310 (СЗ) 50000 м  в посл. час ливневой дождь  10/4 600 м кучево-дожд., средняя 
[Cb calv|Ac trans]
+2 -0.5 83 +1  1016.6  1.7  758  303         
15 25.02.17 290 (З) 50000 м    6/3 600 м средняя 
[Sc|Ac trans]
+4 -3.3 59 +4  1018.8  2.2  760  302           
18 25.02.17 270 (З) 26000 м    3/3 600 м 
[Sc]
+1.4 -3.5 70 +1  1022.2  3.4  763  306    +6.3     
21 25.02.17 270 (З) 45000 м    ясно 
+0.7 -4 71 1024.6  2.3  764  308           
00 26.02.17 290 (З) 50000 м    ясно 
+1.1 -5 64 1026.1  1.5  766  308           
03 26.02.17 300 (СЗ) 50000 м    ясно 
+1 -5.9 60 1027.7  1.6  767  308           
06 26.02.17 250 (З) 40000 м    8/0 верхняя 
[Ci fib]
+0.8 -4.6 67 +1  1028.2  0.5  767  309  -0.8         
09 26.02.17 170 (Ю) 22000 м    9/0 верхняя 
[Ci]
+2.8 -3.5 63 +1  1027.4  -0.7  767  306           
12 26.02.17 180 (Ю) 45000 м    9/0 верхняя 
[Ci fib]
+4.5 -0.3 71 +3  1025.1  -2.3  765  303           
15 26.02.17 220 (ЮЗ) 35000 м    9/0 верхняя 
[Ci fib]
+3.7 +0.5 80 +2  1022.9  -2.2  763  303           
18 26.02.17 220 (ЮЗ) 50000 м    9/3 1300 м средняя, верхняя 
[Sc|Ac und|Ci fib]
+3.3 +0.9 84 +2  1021.8  -1.1  762  303    +5.1       
21 26.02.17 230 (ЮЗ) 40000 м    9/6 1020 м средняя, верхняя 
[Sc|Ac und|Ci fib]
+3.7 +1.4 85 +2  1020.4  -1.4  761  302           
00 27.02.17 230 (ЮЗ) 28000 м    10/8 330 м средняя 
[Sc|Ac trans]
+3.9 +1.9 87 +3  1019.2  -1.2  760  302           
03 27.02.17 230 (ЮЗ) 20000 м  в посл. час ливневой дождь  10/8 1500 м кучево-дожд., средняя 
[Cb calv|Ac trans]
+3.7 +2.4 91 +2  1018.3  -0.9  760  302           
06 27.02.17 260 (З) 7000 м  дымка{ливн. осадки}  10/10 100 м 
[St]
+3.2 +2.4 94 +3  1019.5  1.2  761  303  +3    0.0     
09 27.02.17 180 (Ю) 3700 м  дымка  10/10 120 м 
[St]
+3.6 +2.3 91 +4  1020.2  0.7  761  302           
12 27.02.17 180 (Ю) 0200 м  туман  ?/?  
+2.1 +2.1 100 +1  1019.4  -0.8  761  304           
15 27.02.17 170 (Ю) 0200 м  туман  ?/?  
+1.5 +1.5 100 +2  1019.3  -0.1  761  305           
18 27.02.17 200 (Ю) 0200 м  туман  ?/?  
-0.3 -0.3 100 -1  1020.4  761  307    +4.1       
21 27.02.17 220 (ЮЗ) 3300 м  в посл. час туман  10/10 100 м 
[St]
+2.9 +2.6 98 +2  1020.4  0.1  761  303           
00 28.02.17 180 (Ю) 8000 м  дымка{туман}  10/10 210 м 
[St]
+3.8 +2.8 93 +3  1019.8  -0.6  761  302           
03 28.02.17 190 (Ю) 9000 м  дымка  10/10 330 м 
[St]
+3.1 +1.8 91 +1  1019.4  -0.4  761  303           
06 28.02.17 170 (Ю) 8000 м  дымка  10/10 180 м 
[St]
+3.4 +2.4 93 +1  1019.7  0.3  761  302  -0.9         
09 28.02.17 190 (Ю) 21000 м    10/6 360 м средняя 
[Sc|Ac As]
+3.8 +2.8 93 +2  1019.7  761  302           
12 28.02.17 170 (Ю) 7000 м  дымка  10/10 60 м 
[St]
+3.8 +3.1 95 +1  1018.1  -1.6  760  301           
Время (UTC), дата Ветер
(°,м/с) 
Видим.   Явления Облачность Т
(°С)
Тd
(°С)
f(%) Тe
(°С)
Pmin
(гПа)
dP
(гПа)
Po
(мм)
O2
(г/м3)
Тmin Tmax R s Состояние
почвы

Для получения пояснительной информации подведите курсор к названию столбца.

ПОГОДА в Одессе - архив

Всё, что Вы хотите узнать о погоде в Одессе - удобно и подробно!

Выберите нужную дату (начиная с 1 января 2015* года) и нажмите кнопку "Найти".
Будут отображены архивные сводки погоды по пункту Одесса, начиная с указанной даты.


Отображать данные в формате CSV (для использования в таблицах Excel)


Внимание! Наш архив погоды предназначен исключительно для личного некоммерческого использования в познавательных целях. Если Вам необходимы официальные справки о состоянии погоды (для производственных, юридических, коммерческих и т.п. целей), обращайтесь в органы Росгидромета.

*Примечание: данная дата относится к архиву по метеостанциям СССР (Россия, СНГ, Балтия).
Архив по метеостанциям Зарубежной Европы и Азии (кроме Китая) хранится 10 дней, по другим регионам земного шара (Китай, Африка, Америка, Австралия, Океания) - 1 день.

Одесса - район местоположения метеостанции


Название, широта, долгота, высота метеостанции:
Одесса (город) 46.4°ш. 30.8°д. 42 м над ур. моря [Украина]

Дополнительная информация

В oтличие oт бoльшинства пoгoдных сайтoв мы публикуем пoдрoбную метеoинфoрмацию в детальнoм прoфессиoнальнoм фoрмате.

Характеристики температуры и влажнoсти вoздуха измеряются на высoте 2 м в тени вдали oт зданий и деревьев.
Скoрoсть ветра измеряется на высoте 10 м (на урoвне рoста челoвека скoрoсть ветра ниже в 1.5-2 раза). Если метеoстанция нахoдится в гoрoде или в лесу, тo скoрoсть ветра занижена на 2-4 м/с пo сравнению с oткрытым местoм. Скoрoсть ветра над акватoриями крупных рек и oзёр, а также на вершинах хoлмoв на 2-5 м/с выше, чем в oбычных услoвиях.
Атмoсфернoе давление в разных тoчках местнoсти мoжет значительнo oтличаться oт давления на метеoстанции, в зависимoсти oт услoвий рельефа (при пoдъёме на 10 м давление пoнижается примернo на 1 мм рт.ст.).